Location: Mahannah Oil Field
(37.4664°N, 96.6003°W)
Time: 20:42:09
(UTC+00:00)

Transit 2A Rocket - All Passes

Search period start: 21 January 2021 00:00
Search period end: 31 January 2021 00:00
Orbit: 592 x 910 km, 66.7° (Epoch: 21 January)

Date Brightness Start Highest point End Pass type
(mag) Time Alt. Az. Time Alt. Az. Time Alt. Az.
21 Jan - 03:28:54 10° N 03:32:11 20° NE 03:35:25 10° E night (unlit)
21 Jan - 05:10:52 10° NW 05:14:48 34° WSW 05:18:41 10° S night (unlit)
21 Jan - 18:00:30 10° SSE 18:05:14 28° ESE 18:09:40 10° NE daylight
21 Jan - 19:42:34 10° SW 19:47:40 37° WNW 19:52:25 10° N daylight
22 Jan - 02:47:38 10° NNE 02:49:15 12° NE 02:50:50 10° ENE night (unlit)
22 Jan - 04:28:00 10° NNW 04:32:19 72° WSW 04:36:35 10° SSE night (unlit)
22 Jan - 17:19:38 10° SE 17:22:51 16° ESE 17:25:55 10° ENE daylight
22 Jan - 18:59:26 10° SW 19:05:00 65° WNW 19:10:06 10° NNE daylight
23 Jan - 03:45:27 10° NNW 03:49:45 56° ENE 03:53:57 10° SE night (unlit)
23 Jan - 05:30:35 10° W 05:31:40 11° WSW 05:32:45 10° WSW night (unlit)
23 Jan - 18:16:48 10° SSW 18:22:25 73° ESE 18:27:33 10° NNE daylight
23 Jan - 20:02:05 10° W 20:05:24 16° NW 20:08:33 10° N daylight
24 Jan - 03:03:12 10° N 03:07:03 29° NE 03:10:49 10° ESE night (unlit)
24 Jan - 04:46:02 10° WNW 04:49:22 22° WSW 04:52:41 10° SSW night (unlit)
24 Jan - 17:34:40 10° S 17:39:53 40° ESE 17:44:43 10° NE daylight
24 Jan - 19:17:57 10° WSW 19:22:31 27° NW 19:26:47 10° N daylight
25 Jan - 02:21:21 10° N 02:24:12 17° NE 02:27:00 10° E visible
25 Jan - 04:02:50 10° NW 04:06:57 44° WSW 04:11:02 10° S night (unlit)
25 Jan - 16:53:10 10° SSE 16:57:27 23° ESE 17:01:29 10° ENE daylight
25 Jan - 18:34:30 10° SW 18:39:47 45° WNW 18:44:39 10° NNE daylight
26 Jan - 03:20:06 10° NNW 03:24:27 89° ENE 03:28:45 10° SSE night (unlit)
26 Jan - 16:12:58 10° SE 16:15:05 12° ESE 16:17:09 10° E daylight
26 Jan - 17:51:34 10° SSW 17:57:08 79° WNW 18:02:15 10° NNE daylight
26 Jan - 19:38:36 10° WNW 19:40:22 12° NW 19:42:05 10° NNW daylight
27 Jan - 02:37:40 10° NNW 02:41:50 44° ENE 02:45:56 10° SE visible
27 Jan - 04:21:37 10° WNW 04:23:53 14° WSW 04:26:11 10° SW night (unlit)
27 Jan - 17:09:06 10° SSW 17:14:35 59° ESE 17:19:36 10° NE daylight
27 Jan - 18:53:38 10° W 18:57:25 19° NW 19:01:00 10° N daylight
28 Jan - 01:55:32 10° N 01:59:05 24° NE 02:02:35 10° ESE visible
28 Jan - 03:37:52 10° NW 03:41:33 28° WSW 03:45:14 10° S night (unlit)
28 Jan - 16:27:09 10° S 16:32:05 33° ESE 16:36:39 10° NE daylight
28 Jan - 18:09:47 10° WSW 18:14:36 31° NW 18:19:05 10° N daylight
29 Jan - 01:13:57 10° NNE 01:16:12 14° NE 01:18:25 10° E visible
29 Jan - 02:54:52 10° NW 02:59:06 57° WSW 03:03:19 10° SSE visible
29 Jan - 15:45:58 10° SSE 15:49:40 18° ESE 15:53:10 10° ENE daylight
29 Jan - 17:26:31 10° SW 17:31:54 54° WNW 17:36:50 10° NNE daylight
30 Jan - 02:12:15 10° NNW 02:16:34 69° ENE 02:20:50 10° SE visible
30 Jan - 16:43:44 10° SSW 16:49:17 86° ESE 16:54:22 10° NNE daylight
30 Jan - 18:29:44 10° WNW 18:32:22 14° NW 18:34:54 10° NNW daylight
